world map with VLL marked

VLL - Airport

This information may not be accurate or current and is not valid for navigation or flight planning. No warranty of fitness for any purpose is made or implied.

flag of Castille and Leónflag of Spain

Donate via PayPal

Additional information is available on the NEW Great Circle Mapper

Location
City:  Valladolid, Castille and León, Spain
ICAO / IATA:LEVD / VLL

Details
Type:Airport (Aerodrome, Airfield)
Use:Public/Civil, Military
Latitude:41°42'22"N (41.706111)
Longitude:4°51'07"W (-4.851943)
Datum:WGS 1984
Elevation:2775 ft (846 m)
Runways:2
Longest:9843 × 197 ft (3000 × 60 m)

Time
Timezone:UTC+1 (DST+2)
Local Time:

Weather
METAR:LEVD  210830Z 28003KT CAVOK 16/12 Q1028
TAF:LEVD  210500Z 2106/2206 VRB04KT CAVOK TX27/2114Z TN08/2107Z BECMG 2112/2114 28012KT

Related Locations
Nearby:
Farthest:WLG: 12401 mi / 19957 km
Wellington [Intl], NZ

Find:

   beyond  
but within

Other Information
Maps:
Links:
Sources:

  


 


Great Circle Mapper   Great Circle Mapper
Great Circle Mapper FAQ   Great Circle Mapper FAQ
  Karl's Home Page
KLS˛   KLS˛ Home
   GC on Facebook
Airlines of the World   Airlines of the World
Donate via PayPal


Copyright © 2004-2014, Karl L. Swartz. All rights reserved.
All trademarks mentioned herein belong to their respective owners.

Please see credits for attribution and copyright information.

Karl Swartz <karl@kls2.com>
  Powered by FreeBSD
Valid HTML 4.01!
Labeled with ICRA
hCard Microformat
Geo Microformat